Zurück zum Katalog

JILIN-01 KUANFU 02B 3

AktivWissenschaftSSO
NORAD 61191·PAYLOAD·🇨🇳 China

Gestartet Sep 20, 2024 von Taiyuan Satellite Launch Center

Loading…

Nächste Überflüge (nächste 24 Stunden)

TLE

AktuellSource: Space-Track

Epoche: Sep 14, 2026, 13:11 UTC

1 61191U 24169C   26257.54932287  .00002471  00000-0  15825-3 0  9990
2 61191  97.5537 345.5309 0013486   8.5792 351.5665 15.09407940109301

Verfolge JILIN-01 KUANFU 02B 3 in Echtzeit mit AllMySat

Download on the App Store